• Join FlightAware (Why Join?)
  • Login
  • US Flag 
02:03AM EDT


 

Airport Tracker/Info


-or-


 

Live Flight TrackerFlight Track Log ✈ N331SK ✈ 30-Aug-2013 ✈ KLNK - KFXY

Flight Track Log - Related Links

Times and Time Zones

All times are in EDT time to prevent confusion due to time zone crossing. See the N331SK flight status page for this flight to view local times or setup timezone preferences in your user account.

Time Position Orientation Groundspeed Altitude Reporting Facility
EDT Latitude Longitude Course Direction KTS MPH feet Rate Location/Type
01:35PM 40.8611 -96.7464 24° Northeast 148 170 2,000  Level Minneapolis Center
01:37PM 40.9178 -96.7131 24° Northeast 227 261 4,900 2,640 Climbing Minneapolis Center
01:38PM 40.9819 -96.6614 31° Northeast 227 261 8,100 2,400 Climbing Minneapolis Center
01:39PM 41.0339 -96.5897 46° Northeast 259 298 10,000 2,220 Climbing Minneapolis Center
01:40PM 41.0964 -96.5108 44° Northeast 297 342 12,700 2,400 Climbing Minneapolis Center
01:41PM 41.1636 -96.4264 43° Northeast 323 372 15,000 2,220 Climbing Minneapolis Center
01:42PM 41.2331 -96.3358 44° Northeast 342 394 17,300 2,220 Climbing Minneapolis Center
01:43PM 41.3158 -96.2281 44° Northeast 359 413 19,600 1,740 Climbing Minneapolis Center
01:44PM 41.3917 -96.1286 45° Northeast 377 434 21,000 660 Climbing Minneapolis Center
01:45PM 41.4731 -96.0228 44° Northeast 401 461 21,000  Level Minneapolis Center
01:46PM 41.5583 -95.9133 44° Northeast 422 486 21,000  Level Minneapolis Center
01:47PM 41.6589 -95.7814 44° Northeast 423 487 21,000  Level Minneapolis Center
01:48PM 41.7386 -95.6775 44° Northeast 423 487 21,000  Level Minneapolis Center
01:49PM 41.8219 -95.5658 45° Northeast 423 487 21,000  Level Minneapolis Center
01:50PM 41.9061 -95.4550 44° Northeast 425 489 21,000  Level Minneapolis Center
01:51PM 41.9900 -95.3428 45° Northeast 425 489 21,000  Level Minneapolis Center
01:52PM 42.0914 -95.2075 45° Northeast 427 491 21,000  Level Minneapolis Center
01:53PM 42.1747 -95.0933 45° Northeast 427 491 21,000  Level Minneapolis Center
01:54PM 42.2594 -94.9783 45° Northeast 431 496 21,000  Level Minneapolis Center
01:55PM 42.3433 -94.8644 45° Northeast 429 494 21,000  Level Minneapolis Center
01:56PM 42.4272 -94.7497 45° Northeast 429 494 21,000 -180 Level Minneapolis Center
01:57PM 42.5119 -94.6347 45° Northeast 431 496 20,700 -1,260 Descending Minneapolis Center
01:58PM 42.6086 -94.4953 47° Northeast 440 506 18,400 -2,100 Descending Minneapolis Center
01:59PM 42.6739 -94.3564 57° Northeast 442 509 16,400 -1,980 Descending Minneapolis Center
02:00PM 42.7306 -94.2244 60° Northeast 420 483 14,400 -1,980 Descending Minneapolis Center
02:02PM 42.7900 -94.0958 58° Northeast 409 471 12,400 -2,160 Descending Minneapolis Center
02:03PM 42.8583 -93.9464 58° Northeast 394 453 10,000 -1,980 Descending Minneapolis Center
02:04PM 42.9033 -93.8447 59° Northeast 333 383 8,400 -1,500 Descending Minneapolis Center
02:05PM 42.9456 -93.7522 58° Northeast 302 348 6,900 -1,500 Descending Minneapolis Center
02:07PM 43.1062 -93.6812 51° Northeast  Level Estimated
02:14PM 43.2333 -93.6167 36° Northeast  Level FlightAware Approximate